Regional Weather Roundup
Issued by NWS Mt. Holly, NJ

Home | Current Version | Previous Version | Text Only | Print | Product List | Glossary On
Versions: 1 2 3 4 5 6 7 8 9 10 11 12 13 14 15 16 17 18 19 20 21 22 23 24 25 26 27 28 29 30 31 32 33 34 35 36 37 38 39 40 41 42 43 44 45 46 47 48 49 50
000
ASUS41 KPHI 260512
RWRPHI

REGIONAL WEATHER ROUNDUP
NATIONAL WEATHER SERVICE MOUNT HOLLY NJ
100 AM EDT SUN MAR 26 2017

NOTE:  "FAIR" INDICATES FEW OR NO CLOUDS BELOW 12,000 FEET WITH NO
SIGNIFICANT WEATHER AND/OR OBSTRUCTIONS TO VISIBILITY.

 * = STATION DOES NOT REPORT PRECIPITATION (E.G. RAIN, SNOW, ETC.)
        OR FOG.

NJZ015>026-260600-
SOUTHERN NEW JERSEY

CITY           SKY/WX    TMP DP  RH WIND       PRES   REMARKS
POMONA         CLOUDY    45  38  76 NE14G23   30.32S
WILDWOOD*      CLOUDY    44  41  89 NE17G28   30.30S
MILLVILLE      CLOUDY    46  41  82 E14       30.31R
WRIGHTSTOWN    CLOUDY    42  39  87 NE8       30.34S
MOUNT HOLLY    CLOUDY    43  39  86 E10       30.36S
TRENTON        CLOUDY    44  39  82 E13       30.36S

$$
NJZ001>014-260600-
NORTHERN NEW JERSEY

CITY           SKY/WX    TMP DP  RH WIND       PRES   REMARKS
SUSSEX         CLOUDY    36  33  89 NE9       30.40R WCI  29
ANDOVER*         N/A     36  33  89 VRB7      30.38S WCI  30
MORRISTOWN     CLOUDY    41  37  87 NE10      30.39S
NEWARK         CLOUDY    44  34  67 E15       30.39S
TETERBORO      CLOUDY    43  38  82 NE6       30.40R
CALDWELL       CLOUDY    41  37  86 NE8       30.40S
SOMERVILLE     CLOUDY    44  38  79 NE6       30.37R
ALLAIRE*       CLOUDY    41  38  89 E10G20    30.39R
TOMS RIVER*    CLOUDY    42  40  92 E8        30.37F

$$
PAZ043-044-047-054-055-060>062-066>071-260600-
EASTERN PENNSYLVANIA

CITY           SKY/WX    TMP DP  RH WIND       PRES   REMARKS
PHILADELPHIA   CLOUDY    45  39  79 E12       30.35S
NORTH PHILA    CLOUDY    45  39  79 E13       30.38R
BLUE BELL*     CLOUDY    43  37  81 E7        30.35R
DOYLESTOWN     CLOUDY    43  39  86 CALM      30.36R
QUAKERTOWN*    CLOUDY    45  39  81 E9        30.35S
PERKASIE*      CLOUDY    43  39  87 E8        30.36R
POTTSTOWN      CLOUDY    44  38  79 E7        30.36R
LANCASTER      PTCLDY    47  42  83 E15       30.30S
COATESVILLE    CLOUDY    45  39  81 E18G31    30.32S
READING        CLOUDY    47  41  80 E9        30.31F
ALLENTOWN      CLOUDY    43  35  73 NE10      30.36S
MOUNT POCONO   CLOUDY    32  32 100 E13       30.31S WCI  22
HAZLETON       CLOUDY    39  36  87 E10G17    30.32S WCI  32
LEHIGHTON      CLOUDY    43  36  75 E3        30.36R
WILKES BARRE   CLOUDY    42  39  89 E5        30.32S

$$
DEZALL-MDZ008-012-015-019-020-260600-
DELAWARE AND EASTERN MARYLAND

CITY           SKY/WX    TMP DP  RH WIND       PRES   REMARKS
WILMINGTON     PTCLDY    45  40  82 E13       30.33S
DOVER          CLOUDY    46  46 100 E10       30.29R
GEORGETOWN     CLOUDY    47  42  83 E10       30.29R
EASTON         CLOUDY    49  41  72 E12G20    30.30R
ABERDEEN       CLOUDY    48  42  80 E13       30.30S
PATUXENT       CLOUDY    54  51  90 E8        30.22R
OCEAN CITY     MOCLDY    46  43  89 NE13      30.26R
WALLOPS ISLAND PTCLDY    52  50  93 NE13      30.24R
CAMBRIDGE      MOCLDY    48  43  81 E9        30.25S
SALISBURY      CLOUDY    47  45  93 NE10      30.26R

$$
PAZ001-021-NYZ056-072-MDZ011-DCZ001-260600-
OTHER NEARBY LOCATIONS

CITY           SKY/WX    TMP DP  RH WIND       PRES   REMARKS
HARRISBURG     PTCLDY    50  42  74 E17       30.28R
STATE COLLEGE  CLOUDY    40  38  91 NE7       30.26S
WILLIAMSPORT   CLOUDY    44  37  76 CALM      30.31S
BINGHAMTON     CLOUDY    33  33 100 E10       30.30F WCI  25
NEW YORK CITY  CLOUDY    42  34  73 E14G22    30.42S
BALTIMORE      CLOUDY    50  44  80 E15G24    30.26S
WASHINGTON DC  CLOUDY    58  47  66 E10       30.23R

$$



USA.gov is the U.S. government's official web portal to all federal, state and local government web resources and services.